Погода в Верхоянске

Россия / Республика Саха (Якутия)     67°33′00″N   133°23′26″E
темп.,
°C
ветер,
м/с
пор.,
м/с
влажн.,
%
обл.,
%
осадки,
мм/ч
давл.,
гПа
погр.,
м
4 августа, ср
ср401:00+13ссз224593 0.0 101311
04:00+11с22515 0.0 101410
07:00+14с224185 0.0 1014168
10:00+18ссв34300 0.0 1014674
13:00+22ссв45245 0.0 10131118
16:00+23ссв552076 0.0 10121412
19:00+22ссв562449 0.0 10121210
22:00+15ссз333913 0.0 101215
5 августа, чт
чт501:00+10сз224975 0.0 101311
04:00+9ссз225137 0.0 101411
07:00+12ссз35450 0.0 1015358
10:00+17ссв67310 0.0 1014961
13:00+20ссв88240 0.0 10131371
16:00+21ссв99230 0.0 10111779
19:00+18ссв1213354 0.0 10121041
22:00+9ссв8166474 0.0 1014505
6 августа, пт
пт601:00+6с597735 0.0 1015251
04:00+5с358318 0.0 1016120
07:00+7с23710 0.0 1017445
10:00+10ссв11570 0.0 1017802
13:00+14в11448 0.0 10161151
16:00+17в11380 0.0 10151318
19:00+18ссв22361 0.0 1016995
22:00+13ссв33504 0.0 101611
7 августа, сб
сб701:00+11ссв33615 0.0 101713
04:00+9св22695 0.0 101811
07:00+13всв11490 0.0 1020132
10:00+18всв113742 0.0 1020485
13:00+22в122912 0.0 1019959
16:00+25вюв232393 0.0 10181526
19:00+26вюв232492 0.0 10171210
22:00+19св22385 0.0 101811
8 августа, вс
вс801:00+15св22465 0.0 101811
04:00+14св22504 0.0 101810
07:00+18всв11410 0.0 101882
10:00+23ююв13305 0.0 1017619
13:00+27ю34265 0.0 10161728
16:00+28ююз44255 0.0 10142289
19:00+28юз34265 0.0 10132008
22:00+20ссв22424 0.0 101311